Weather History for KPHL - February, 2014

Change the Weather History Date:

Saturday, February 15, 2014

  Actual Average Record
Temperature  
Mean Temperature 33 °F 36 °F  
Max Temperature 37 °F 44 °F 74 °F (1949)
Min Temperature 29 °F 28 °F 3 °F (1943)
Degree Days  
Heating Degree Days 32 29  
Month to date heating degree days 514 458  
Since 1 July heating degree days 3258 3121  
Cooling Degree Days 0 0  
Month to date cooling degree days 0 0  
Year to date cooling degree days 0 0  
Moisture  
Dew Point 26 °F    
Average Humidity 65    
Maximum Humidity 82    
Minimum Humidity 47    
Precipitation  
Precipitation 0.10 in 0.10 in 1.09 in (1953)
Month to date precipitation 4.35 1.42  
Year to date precipitation 7.90 4.45  
Snow  
Snow 0.60 in 0.40 in 6.50 in (1958)
Month to date snowfall 18.3 5.2  
Since 1 July snowfall 55.4 15.4  
Snow Depth 7.00 in    
Sea Level Pressure  
Sea Level Pressure 29.68 in    
Wind  
Wind Speed 13 mph (North)    
Max Wind Speed 29 mph    
Max Gust Speed 36 mph    
Visibility 6 miles    
Events Rain , Snow    
T = Trace of Precipitation, MM = Missing Value Source: NWS Daily Summary

Daily Weather History Graph

Daily Weather History Graph

Search for Another Location

Airport or City:

Trip Planner

Search our weather history database for the weather conditions in past years. The results will help you decide how hot, cold, wet, or windy it might be!

Date:

Astronomy

Feb. 15, 2014 Rise Set
Actual Time 6:53 AM EST 5:37 PM EST
Civil Twilight 6:25 AM EST 6:04 PM EST
Nautical Twilight 5:54 AM EST 6:36 PM EST
Astronomical Twilight 5:22 AM EST 7:07 PM EST
Moon 6:34 PM EST (2/15) 6:51 AM EST (2/15)
Length of Visible Light 11h 38m
Length of Day
10h 43m
Full, 100% of the Moon is Illuminated
Feb 15
Full
Feb 22
Last Quarter
Mar 1
New
Mar 8
First Quarter
Mar 16
Full

Hourly Weather History & Observations

Time (EST) Temp. Windchill Dew Point Humidity Pressure Visibility Wind Dir Wind Speed Gust Speed Precip Events Conditions
12:54 AM 34.0 °F 28.8 °F 25.0 °F 70% 29.80 in 10.0 mi East 5.8 mph - N/A   Overcast
1:54 AM 35.1 °F 28.6 °F 24.1 °F 64% 29.78 in 10.0 mi East 8.1 mph - N/A   Overcast
2:54 AM 34.0 °F 29.8 °F 24.1 °F 67% 29.77 in 10.0 mi East 4.6 mph - N/A   Overcast
3:54 AM 33.1 °F 27.7 °F 24.1 °F 70% 29.75 in 10.0 mi East 5.8 mph - N/A   Overcast
4:54 AM 33.1 °F 26.9 °F 23.0 °F 66% 29.73 in 10.0 mi NE 6.9 mph - N/A   Overcast
5:54 AM 34.0 °F 26.6 °F 21.9 °F 61% 29.71 in 10.0 mi NE 9.2 mph - N/A   Overcast
6:54 AM 34.0 °F 27.2 °F 21.9 °F 61% 29.70 in 10.0 mi NE 8.1 mph - N/A   Overcast
7:54 AM 34.0 °F 27.2 °F 23.0 °F 64% 29.70 in 10.0 mi NE 8.1 mph - N/A   Overcast
8:54 AM 36.0 °F 29.0 °F 23.0 °F 59% 29.68 in 10.0 mi NE 9.2 mph - 0.00 in Rain Light Rain
9:27 AM 35.6 °F 28.6 °F 24.8 °F 65% 29.66 in 10.0 mi NE 9.2 mph - 0.00 in Rain Light Ice Pellets
9:42 AM 35.6 °F 28.0 °F 24.8 °F 65% 29.65 in 8.0 mi NE 10.4 mph - 0.00 in Rain Light Ice Pellets
9:48 AM 35.6 °F 27.5 °F 24.8 °F 65% 29.66 in 8.0 mi NNE 11.5 mph - 0.00 in Rain Light Rain
9:54 AM 36.0 °F 28.5 °F 25.0 °F 64% 29.65 in 8.0 mi NNE 10.4 mph - 0.00 in Rain Light Rain
10:18 AM 35.6 °F 27.5 °F 26.6 °F 70% 29.64 in 6.0 mi NNE 11.5 mph - 0.00 in Rain Light Rain
10:33 AM 35.6 °F 28.0 °F 28.4 °F 75% 29.65 in 7.0 mi NNE 10.4 mph - 0.00 in Rain Light Rain
10:54 AM 37.0 °F 29.8 °F 28.0 °F 70% 29.65 in 7.0 mi NNE 10.4 mph 19.6 mph 0.01 in Rain Light Rain
11:06 AM 37.4 °F 30.3 °F 28.4 °F 70% 29.64 in 5.0 mi NNE 10.4 mph - 0.00 in Rain Light Rain
11:45 AM 37.4 °F 30.8 °F 30.2 °F 75% 29.62 in 4.0 mi NNE 9.2 mph - 0.02 in Rain Light Rain
11:54 AM 37.0 °F 28.9 °F 30.9 °F 79% 29.61 in 4.0 mi NNE 12.7 mph 21.9 mph 0.02 in Rain Light Rain
12:07 PM 37.4 °F 30.8 °F 30.2 °F 75% 29.61 in 4.0 mi North 9.2 mph - 0.01 in Rain Light Rain
12:24 PM 35.6 °F 28.0 °F 30.2 °F 81% 29.61 in 4.0 mi NNE 10.4 mph - 0.01 in Rain Light Ice Pellets
12:39 PM 35.6 °F 27.5 °F 30.2 °F 81% 29.59 in 2.5 mi NNE 11.5 mph - 0.01 in Rain , Snow Light Rain
12:54 PM 35.1 °F 27.4 °F 30.9 °F 85% 29.59 in 2.0 mi North 10.4 mph - 0.03 in Rain , Snow Light Rain
1:04 PM 35.6 °F 27.5 °F 30.2 °F 81% 29.58 in 2.5 mi North 11.5 mph - 0.00 in Snow Light Snow
1:40 PM 35.6 °F 26.6 °F 30.2 °F 81% 29.58 in 3.0 mi North 13.8 mph - 0.01 in Snow Light Snow
1:54 PM 35.1 °F 25.5 °F 30.0 °F 82% 29.59 in 4.0 mi North 15.0 mph - 0.01 in Snow Light Snow
2:05 PM 35.6 °F 25.9 °F 30.2 °F 81% 29.59 in 4.0 mi North 16.1 mph 21.9 mph 0.01 in Snow Light Ice Pellets
2:32 PM 35.6 °F 26.6 °F 28.4 °F 75% 29.60 in 4.0 mi North 13.8 mph 21.9 mph 0.01 in Snow Light Snow
2:46 PM 33.8 °F 23.2 °F 28.4 °F 81% 29.60 in 5.0 mi North 17.3 mph 25.3 mph 0.01 in Snow Light Snow
2:54 PM 34.0 °F 23.8 °F 28.0 °F 79% 29.62 in 6.0 mi North 16.1 mph 25.3 mph 0.01 in Snow Light Snow
3:21 PM 33.8 °F 23.2 °F 28.4 °F 81% 29.62 in 4.0 mi North 17.3 mph 25.3 mph 0.00 in Snow Light Snow
3:38 PM 33.8 °F 23.5 °F 28.4 °F 81% 29.62 in 2.5 mi North 16.1 mph 26.5 mph 0.00 in Snow Light Snow
3:49 PM 33.8 °F 22.5 °F 28.4 °F 81% 29.62 in 1.0 mi North 19.6 mph 27.6 mph 0.00 in Snow Light Snow
3:54 PM 33.1 °F 23.0 °F 28.0 °F 82% 29.62 in 1.0 mi North 15.0 mph 26.5 mph 0.00 in Snow Light Snow
4:03 PM 33.8 °F 23.2 °F 28.4 °F 81% 29.63 in 0.8 mi North 17.3 mph 23.0 mph 0.00 in Snow Light Snow
4:47 PM 33.8 °F 23.5 °F 28.4 °F 81% 29.66 in 1.0 mi North 16.1 mph - 0.02 in Snow Light Snow
4:54 PM 34.0 °F 23.8 °F 28.9 °F 82% 29.66 in 1.0 mi NNW 16.1 mph - 0.02 in Snow Light Snow
5:21 PM 33.8 °F 24.3 °F 28.4 °F 81% 29.68 in 2.0 mi NNW 13.8 mph - 0.00 in Snow Light Snow
5:37 PM 33.8 °F 24.3 °F 28.4 °F 81% 29.69 in 3.0 mi NNW 13.8 mph - 0.00 in Snow Light Snow
5:48 PM 33.8 °F 25.3 °F 28.4 °F 81% 29.69 in 2.5 mi NNW 11.5 mph - 0.00 in Snow Light Snow
5:54 PM 34.0 °F 24.2 °F 28.9 °F 82% 29.69 in 2.5 mi NNW 15.0 mph - 0.00 in Snow Light Snow
6:08 PM 33.8 °F 23.5 °F 28.4 °F 81% 29.70 in 7.0 mi NNW 16.1 mph - 0.00 in Snow Light Snow
6:24 PM 33.8 °F 22.5 °F 28.4 °F 81% 29.71 in 7.0 mi NNW 19.6 mph 24.2 mph 0.00 in Snow Light Snow
6:38 PM 33.8 °F 21.9 °F 26.6 °F 75% 29.72 in 10.0 mi NNW 21.9 mph 27.6 mph 0.00 in   Overcast
6:54 PM 34.0 °F 23.4 °F 26.1 °F 73% 29.72 in 10.0 mi NNW 17.3 mph 24.2 mph 0.00 in   Overcast
7:54 PM 34.0 °F 22.4 °F 19.9 °F 56% 29.75 in 10.0 mi NW 20.7 mph 29.9 mph N/A   Mostly Cloudy
8:54 PM 33.1 °F 20.9 °F 18.0 °F 54% 29.78 in 10.0 mi NNW 21.9 mph 29.9 mph N/A   Mostly Cloudy
9:54 PM 32.0 °F 19.8 °F 16.0 °F 52% 29.82 in 10.0 mi NW 20.7 mph 32.2 mph N/A   Mostly Cloudy
10:54 PM 30.9 °F 19.4 °F 12.9 °F 47% 29.84 in 10.0 mi NW 17.3 mph 26.5 mph N/A   Scattered Clouds
11:54 PM 28.9 °F 16.1 °F 10.9 °F 47% 29.87 in 10.0 mi NW 19.6 mph 31.1 mph N/A   Partly Cloudy